Location: ?ejeti?ky
(50.4060°N, 14.9016°E)
Time: 00:48:33
(UTC+00:00)

STARLINK-1282 - Pass Details

Date: 09 October 2020
Orbit: 549 x 551 km, 53.0° (Epoch: 27 October)

Event Time Altitude Azimuth Distance (km) Brightness Sun altitude
Exits shadow 03:39:08 30° 270° (W) 991 4.3 -15.8°
Maximum altitude 03:41:03 70° 346° (NNW) 588 3.7 -15.5°
Drops below altitude 10° 03:45:12 10° 72° (ENE) 1,828 7.6 -14.9°
Sets 03:47:27 0° 74° (ENE) 2,724 9.0 -14.5°
